Weather History for Gustavus, AK

Change the Weather History Date:

Sunday, April 14, 2013

  Actual Average Record
Temperature  
Mean Temperature 37 °F -  
Max Temperature 48 °F 47 °F 59 °F (1965)
Min Temperature 26 °F 32 °F 21 °F (1965)
Degree Days  
Heating Degree Days 28    
Moisture  
Dew Point 21 °F    
Average Humidity 53    
Maximum Humidity 86    
Minimum Humidity 32    
Precipitation  
Precipitation 0.00 in - - ()
Sea Level Pressure  
Sea Level Pressure 30.23 in    
Wind  
Wind Speed 7 mph (NW)    
Max Wind Speed 18 mph    
Max Gust Speed 21 mph    
Visibility 10 miles    
Events      
Averages and records for this station are not official NWS values.
T = Trace of Precipitation, MM = Missing Value Source: NWS Daily Summary

Daily Weather History Graph

Daily Weather History Graph

Search for Another Location

Airport:

Trip Planner

Search our weather history database for the weather conditions in past years. The results will help you decide how hot, cold, wet, or windy it might be!

Date:

Astronomy

Apr. 14, 2013 Rise Set
Actual Time 5:52 AM AKDT 8:15 PM AKDT
Civil Twilight 5:09 AM AKDT 8:58 PM AKDT
Nautical Twilight 4:12 AM AKDT 9:55 PM AKDT
Astronomical Twilight 3:00 AM AKDT 11:10 PM AKDT
Moon 7:52 AM AKDT (4/14) 12:25 AM AKDT (4/14)
Length of Visible Light 15h 49m
Length of Day
14h 22m
Waxing Crescent, 18% of the Moon is Illuminated
Apr 14
Waxing Crescent
Apr 18
First Quarter
Apr 25
Full
May 2
Last Quarter
May 9
New

Hourly Weather History & Observations

Time (AKDT) Temp. Windchill Dew Point Humidity Pressure Visibility Wind Dir Wind Speed Gust Speed Precip Events Conditions
12:16 AM 33.8 °F 29.6 °F 23.0 °F 65% 30.14 in 10.0 mi NNW 4.6 mph - N/A   Clear
12:36 AM 32.0 °F 28.7 °F 21.2 °F 64% 30.14 in 10.0 mi NNW 3.5 mph - N/A   Clear
12:56 AM 33.8 °F 29.6 °F 23.0 °F 65% 30.14 in 10.0 mi NNW 4.6 mph - N/A   Clear
1:16 AM 30.2 °F 25.4 °F 23.0 °F 75% 30.14 in 10.0 mi North 4.6 mph - N/A   Clear
1:36 AM 30.2 °F 25.4 °F 21.2 °F 69% 30.15 in 10.0 mi North 4.6 mph - N/A   Clear
1:56 AM 30.2 °F 25.4 °F 21.2 °F 69% 30.15 in 10.0 mi NNW 4.6 mph - N/A   Clear
2:16 AM 30.2 °F 24.3 °F 21.2 °F 69% 30.15 in 10.0 mi NNW 5.8 mph - N/A   Clear
2:36 AM 30.2 °F 25.4 °F 21.2 °F 69% 30.16 in 10.0 mi NNW 4.6 mph - N/A   Clear
2:56 AM 30.2 °F 24.3 °F 21.2 °F 69% 30.16 in 10.0 mi NNW 5.8 mph - N/A   Clear
3:16 AM 30.2 °F 25.4 °F 21.2 °F 69% 30.16 in 10.0 mi NNW 4.6 mph - N/A   Clear
3:36 AM 30.2 °F 24.3 °F 21.2 °F 69% 30.16 in 10.0 mi NNW 5.8 mph - N/A   Clear
3:56 AM 30.2 °F 25.4 °F 21.2 °F 69% 30.16 in 10.0 mi NNW 4.6 mph - N/A   Clear
4:16 AM 30.2 °F 25.4 °F 21.2 °F 69% 30.17 in 10.0 mi NW 4.6 mph - N/A   Clear
4:36 AM 30.2 °F 24.3 °F 21.2 °F 69% 30.17 in 10.0 mi NW 5.8 mph - N/A   Clear
4:56 AM 30.2 °F 24.3 °F 21.2 °F 69% 30.18 in 10.0 mi NW 5.8 mph - N/A   Clear
5:16 AM 30.2 °F 25.4 °F 21.2 °F 69% 30.18 in 10.0 mi NW 4.6 mph - N/A   Clear
5:36 AM 30.2 °F 24.3 °F 21.2 °F 69% 30.18 in 10.0 mi NNW 5.8 mph - N/A   Clear
5:56 AM 30.2 °F 26.7 °F 21.2 °F 69% 30.19 in 10.0 mi NNW 3.5 mph - N/A   Clear
6:16 AM 28.4 °F - 21.2 °F 74% 30.19 in 10.0 mi Calm Calm - N/A   Clear
6:36 AM 26.6 °F - 23.0 °F 86% 30.20 in 10.0 mi Calm Calm - N/A   Clear
6:56 AM 26.6 °F - 23.0 °F 86% 30.20 in 10.0 mi Calm Calm - N/A   Clear
7:16 AM 30.2 °F - 23.0 °F 75% 30.20 in 10.0 mi Calm Calm - N/A   Clear
7:36 AM 32.0 °F - 26.6 °F 80% 30.21 in 10.0 mi Calm Calm - N/A   Clear
7:56 AM 35.6 °F - 26.6 °F 70% 30.21 in 10.0 mi Calm Calm - N/A   Clear
8:16 AM 37.4 °F 32.8 °F 24.8 °F 60% 30.21 in 10.0 mi North 5.8 mph - N/A   Clear
8:36 AM 39.2 °F 32.5 °F 21.2 °F 49% 30.21 in 10.0 mi NNW 10.4 mph - N/A   Clear
8:56 AM 41.0 °F 34.3 °F 21.2 °F 45% 30.22 in 10.0 mi NNW 11.5 mph - N/A   Clear
9:16 AM 42.8 °F 37.5 °F 21.2 °F 42% 30.21 in 10.0 mi NW 9.2 mph - N/A   Clear
9:36 AM 42.8 °F 36.6 °F 21.2 °F 42% 30.21 in 10.0 mi NW 11.5 mph - N/A   Clear
9:56 AM 42.8 °F 36.2 °F 19.4 °F 39% 30.22 in 10.0 mi NW 12.7 mph - N/A   Clear
10:16 AM 44.6 °F 38.8 °F 21.2 °F 39% 30.22 in 10.0 mi NW 11.5 mph - N/A   Clear
10:36 AM 44.6 °F 38.8 °F 19.4 °F 37% 30.22 in 10.0 mi NW 11.5 mph - N/A   Clear
10:56 AM 44.6 °F 38.4 °F 19.4 °F 37% 30.22 in 10.0 mi NNW 12.7 mph 17.3 mph N/A   Clear
11:16 AM 44.6 °F 38.8 °F 19.4 °F 37% 30.22 in 10.0 mi WNW 11.5 mph 18.4 mph N/A   Clear
11:36 AM 46.4 °F 40.1 °F 19.4 °F 34% 30.23 in 10.0 mi NNW 15.0 mph - N/A   Clear
11:56 AM 46.4 °F 39.8 °F 19.4 °F 34% 30.23 in 10.0 mi NNW 16.1 mph - N/A   Clear
12:16 PM 46.4 °F 40.7 °F 21.2 °F 37% 30.23 in 10.0 mi NW 12.7 mph 20.7 mph N/A   Clear
12:36 PM 46.4 °F 39.8 °F 19.4 °F 34% 30.23 in 10.0 mi NNW 16.1 mph - N/A   Clear
12:56 PM 46.4 °F 40.4 °F 19.4 °F 34% 30.23 in 10.0 mi NW 13.8 mph 19.6 mph N/A   Clear
1:16 PM 46.4 °F 40.7 °F 19.4 °F 34% 30.23 in 10.0 mi NNW 12.7 mph - N/A   Clear
1:36 PM 48.2 °F - 19.4 °F 32% 30.23 in 10.0 mi NW 10.4 mph 20.7 mph N/A   Clear
1:56 PM 46.4 °F 40.4 °F 19.4 °F 34% 30.24 in 10.0 mi NW 13.8 mph 19.6 mph N/A   Clear
2:16 PM 46.4 °F 39.8 °F 19.4 °F 34% 30.24 in 10.0 mi NW 16.1 mph 20.7 mph N/A   Clear
2:36 PM 46.4 °F 39.2 °F 19.4 °F 34% 30.24 in 10.0 mi NNW 18.4 mph - N/A   Clear
2:56 PM 46.4 °F 39.8 °F 19.4 °F 34% 30.24 in 10.0 mi NW 16.1 mph 20.7 mph N/A   Clear
3:16 PM 46.4 °F 39.5 °F 19.4 °F 34% 30.25 in 10.0 mi NW 17.3 mph - N/A   Clear
3:36 PM 46.4 °F 39.8 °F 19.4 °F 34% 30.25 in 10.0 mi NW 16.1 mph - N/A   Clear
3:56 PM 46.4 °F 40.1 °F 19.4 °F 34% 30.25 in 10.0 mi NW 15.0 mph - N/A   Clear
4:16 PM 46.4 °F 40.4 °F 19.4 °F 34% 30.25 in 10.0 mi NW 13.8 mph 20.7 mph N/A   Clear
4:36 PM 46.4 °F 39.8 °F 19.4 °F 34% 30.25 in 10.0 mi NW 16.1 mph - N/A   Clear
4:56 PM 46.4 °F 39.8 °F 19.4 °F 34% 30.25 in 10.0 mi NW 16.1 mph - N/A   Clear
5:16 PM 46.4 °F 39.8 °F 19.4 °F 34% 30.25 in 10.0 mi NW 16.1 mph - N/A   Clear
5:36 PM 44.6 °F 37.8 °F 19.4 °F 37% 30.25 in 10.0 mi NW 15.0 mph 18.4 mph N/A   Clear
5:56 PM 44.6 °F 37.8 °F 19.4 °F 37% 30.26 in 10.0 mi NW 15.0 mph - N/A   Clear
6:16 PM 44.6 °F 37.4 °F 19.4 °F 37% 30.26 in 10.0 mi NW 16.1 mph - N/A   Clear
6:36 PM 44.6 °F 38.1 °F 19.4 °F 37% 30.26 in 10.0 mi NW 13.8 mph - N/A   Clear
6:56 PM 42.8 °F 35.4 °F 19.4 °F 39% 30.27 in 10.0 mi NW 15.0 mph - N/A   Clear
7:16 PM 42.8 °F 36.6 °F 21.2 °F 42% 30.27 in 10.0 mi NW 11.5 mph - N/A   Clear
7:36 PM 42.8 °F 37.0 °F 21.2 °F 42% 30.27 in 10.0 mi NW 10.4 mph - N/A   Clear
7:56 PM 41.0 °F 35.2 °F 21.2 °F 45% 30.28 in 10.0 mi NW 9.2 mph - N/A   Clear
8:16 PM - - - N/A% 30.28 in 10.0 mi NW 8.1 mph - N/A   Clear
8:36 PM - - - N/A% 30.28 in 10.0 mi NNW 8.1 mph - N/A   Clear
8:56 PM - - - N/A% 30.29 in 10.0 mi NNW 5.8 mph - N/A   Clear
9:16 PM 37.4 °F 32.1 °F 23.0 °F 56% 30.30 in 10.0 mi North 6.9 mph - N/A   Clear
9:36 PM 35.6 °F 30.7 °F 21.2 °F 56% 30.30 in 10.0 mi NW 5.8 mph - N/A   Clear
9:56 PM 35.6 °F 31.7 °F 23.0 °F 60% 30.31 in 10.0 mi NNW 4.6 mph - N/A   Clear
10:16 PM 33.8 °F 30.8 °F 21.2 °F 60% 30.31 in 10.0 mi NNW 3.5 mph - N/A   Clear
10:36 PM 33.8 °F 29.6 °F 23.0 °F 65% 30.32 in 10.0 mi NNW 4.6 mph - N/A   Clear
10:56 PM 33.8 °F 28.6 °F 24.8 °F 70% 30.32 in 10.0 mi NW 5.8 mph - N/A   Clear
11:16 PM 33.8 °F 30.8 °F 24.8 °F 70% 30.32 in 10.0 mi NNW 3.5 mph - N/A   Clear
11:36 PM 33.8 °F - 24.8 °F 70% 30.32 in 10.0 mi Calm Calm - N/A   Clear
11:56 PM 30.2 °F - 23.0 °F 75% 30.32 in 10.0 mi Calm Calm - N/A   Clear